This is the latest recevied weather packets stored in our database for station/object WC4PEM-9. If no packets are shown the sender has not sent any weather packets the latest 1 day(s).
| Time | Temp. | Humidity | Pressure | Rain* | Wind** | Luminosity | Snow |
|---|---|---|---|---|---|---|---|
| 1778042606 | 18.33° C | 88% | 1016.4 hPa | 0 mm | 0.45 m/s, 120° | - | - |
| 1778042369 | 18.33° C | 88% | 1016.5 hPa | 0 mm | 0.45 m/s, 51° | - | - |
| 1778042306 | 18.33° C | 88% | 1016.4 hPa | 0 mm | 0.45 m/s, 9° | - | - |
| 1778042006 | 18.33° C | 88% | 1016.5 hPa | 0 mm | 0.45 m/s, 51° | - | - |
| 1778041706 | 18.33° C | 88% | 1016.5 hPa | 0 mm | 0.45 m/s, 165° | - | - |
| 1778041559 | 18.33° C | 88% | 1016 hPa | 0 mm | 0.89 m/s, 126° | - | - |
| 1778041406 | 18.33° C | 88% | 1016.4 hPa | 0 mm | 0.45 m/s, 319° | - | - |
| 1778041106 | 18.33° C | 88% | 1016 hPa | 0 mm | 0.89 m/s, 126° | - | - |
| 1778040806 | 18.33° C | 88% | 1016.1 hPa | 0 mm | 0.89 m/s, 144° | - | - |
| 1778040506 | 18.33° C | 87% | 1016.2 hPa | 0 mm | 0.45 m/s, 158° | - | - |
| 1778040206 | 18.33° C | 87% | 1015.9 hPa | 0 mm | 0.45 m/s, 146° | - | - |
| 1778039906 | 18.89° C | 87% | 1016.1 hPa | 0 mm | 0.45 m/s, 137° | - | - |
| 1778039606 | 18.89° C | 86% | 1016.3 hPa | 0 mm | 0.45 m/s, 126° | - | - |
| 1778039306 | 18.89° C | 86% | 1016.4 hPa | 0 mm | 0.45 m/s, 137° | - | - |
| 1778039006 | 18.89° C | 86% | 1016.4 hPa | 0 mm | 0.89 m/s, 9° | - | - |
| 1778038706 | 18.89° C | 85% | 1016.3 hPa | 0 mm | 0.89 m/s, 144° | - | - |
| 1778038406 | 18.89° C | 85% | 1015.9 hPa | 0 mm | 0.89 m/s, 137° | - | - |
| 1778038106 | 19.44° C | 85% | 1016.2 hPa | 0 mm | 0.89 m/s, 153° | - | - |
| 1778037806 | 19.44° C | 84% | 1016.3 hPa | 0 mm | 0.89 m/s, 156° | - | - |
| 1778037506 | 19.44° C | 84% | 1016.3 hPa | 0 mm | 0.89 m/s, 137° | - | - |
| 1778037206 | 19.44° C | 83% | 1016.2 hPa | 0 mm | 0.89 m/s, 160° | - | - |
| 1778036906 | 19.44° C | 83% | 1016.3 hPa | 0 mm | 0.89 m/s, 111° | - | - |
| 1778036734 | 20° C | 82% | 1016.4 hPa | 0 mm | 0.89 m/s, 178° | - | - |
| 1778036606 | 20° C | 82% | 1016.3 hPa | 0 mm | 0.89 m/s, 123° | - | - |
| 1778036306 | 20° C | 82% | 1016.4 hPa | 0 mm | 0.89 m/s, 178° | - | - |
* Rain latest hour (hover to see other rain measurements)
** Current wind speed in m/s (hover to see current wind gust speed)